Weather in Gheorgheni

Romania     46°43′25″N   25°36′06″E
temp.,
°C
wind,
m/s
gust,
m/s
humid.,
%
clouds,
%
prec.,
mm/h
press.,
hPa
HPBL,
m
1 august, sun
sun100:00+16sw11700 0.0 101313
03:00+15ssw11790 0.0 101311
06:00+14sw11840 0.0 101311
09:00+21sw12620 0.0 1013371
12:00+26sw23390 0.0 10121390
15:00+28wsw35310 0.0 10112260
18:00+28sw24350 0.0 10101507
21:00+20se33551 0.0 101024
2 august, mon
mon200:00+17e337795 0.4 101141
03:00+16se017454 0.4 101111
06:00+17se11699 0.0 101014
09:00+22sw12581 0.0 1009208
12:00+27w610400 0.0 10092351
15:00+26w611410 0.0 10102631
18:00+24wnw610463 0.0 10111861
21:00+16wsw12640 0.0 101412
3 august, tue
tue300:00+13sw11730 0.0 101510
03:00+12wsw11782 0.0 101610
06:00+11sw117983 0.0 101710
09:00+18w13575 0.0 1017502
12:00+22wnw45440 0.0 10171844
15:00+23wnw45406 0.0 10162191
18:00+22w344324 0.0 10161572
21:00+16ese015885 0.0 101711
4 august, wed
wed400:00+13ene117216 0.1 101811
03:00+13nne1180100 0.1 101811
06:00+11se11896 0.0 101810
09:00+19se11645 0.0 1018268
12:00+24ssw243963 0.0 10162363
15:00+26wsw353336 0.0 10152807
18:00+26wsw244079 0.0 10141993
21:00+20s3351100 0.0 101558
5 august, thu
thu500:00+16se2267100 0.0 101613
03:00+15sse2276100 0.0 101622
06:00+14se2287100 0.0 101615
09:00+21ese12614 0.0 1014212
12:00+28sse353263 0.0 10121760
15:00+30ssw573255 0.0 10102830
18:00+29sse443595 0.0 10072027
21:00+14nw119597 5.6 101115